Location: Basse Occidentale du Courleau
(48.3833°N, 4.8333°W)
Time: 19:11:50
(UTC+00:00)

Cosmos 1455 - Pass Details

Date: 05 July 2020
Orbit: 500 x 521 km, 82.5° (Epoch: 06 August)

Event Time Altitude Azimuth Distance (km) Brightness Sun altitude
Rises 21:41:08 0° 342° (NNW) 2,644 7.3 -10.1°
Reaches altitude 10° 21:43:23 10° 333° (NNW) 1,755 6.4 -10.4°
Maximum altitude 21:46:52 33° 268° (W) 885 3.7 -10.7°
Drops below altitude 10° 21:50:21 10° 204° (SSW) 1,750 4.6 -11.1°
Enters shadow 21:51:40 - 197° (SSW) 2,263 5.1 -11.2°
